{"data":{"norad_id":54190,"epoch":"2026-05-25T01:08:38.146272Z","epoch_age_seconds":71087,"freshness":"FRESH","line1":"1 54190U 22141AK  26145.04766373 -.00003437  00000+0 -19809-3 0  9991","line2":"2 54190  53.2136  11.4553 0001304  97.5540 262.5600 15.08812102197521","mean_motion":15.08812102,"eccentricity":0.0001304,"inclination_deg":53.2136,"raan_deg":11.4553,"arg_perigee_deg":97.554,"mean_anomaly_deg":262.56,"bstar":-0.00019809,"rev_number":19752,"period_min":95.439319322215,"perigee_km":538.92656058076,"apogee_km":540.73076602575,"semimajor_km":6917.9656633033,"source":"CELESTRAK","updated_at":"2026-05-25T13:38:17.682955Z"}}